Location: Budapest
(47.4979°N, 19.0402°E)
Time: 09:15:21
(UTC+02:00)

Tiangong 2 - Pass Details

Date: 16 October 2017
Orbit: 388 x 392 km, 42.8° (Epoch: 18 October)

Event Time Altitude Azimuth Distance (km) Brightness Sun altitude
Exits shadow 06:03:47 15° 245° (WSW) 1,165 3.0 -10.9°
Maximum altitude 06:05:46 27° 194° (SSW) 794 2.5 -10.6°
Drops below altitude 10° 06:08:32 10° 134° (SE) 1,419 4.7 -10.1°
Sets 06:10:47 0° 122° (ESE) 2,274 6.2 -9.7°
